Tracking 19245 objects as of 17-Aug-2018
HD Live streaming from Space Station
objects crossing your sky now

SL-12 R/B(2)

Track SL-12 R/B(2) now!


NORAD ID: 26397
Int'l Code: 2000-036D
Perigee: 35,730.4 km
Apogee: 35,887.2 km
Inclination: 12.3 °
Period: 1,436.9 minutes
Semi major axis: 42179 km
RCS: 2.5119 m2 (large)
Launch date: July 4, 2000
Source: Commonwealth of Independent States (former USSR) (CIS)
Launch site: TYURATAM MISSILE AND SPACE COMPLEX (TTMTR)

Note: This is a ROCKET BODY
aabbcc
Your satellite tracking list
Your tracking list is empty




NASA's NSSDC Master Catalog

Two Line Element Set (TLE):
1 26397U 00036D   18228.67050006 -.00000031 +00000-0 +00000-0 0  9996
2 26397 012.2521 028.9813 0018580 354.5594 358.4409 01.00218141018651
Source of the keplerian elements: AFSPC